User: anonymous   Login
Location: Julian California
(33.0790°N, 116.6010°W)
Time: 12:27:12
(UTC-07:00)
Language:

OAO 2 Rocket - Orbit

View from above orbital plane
View from above orbital plane
View from above satellite
View from above satellite

Ground track
Ground track

The orbit data is extracted from the following two-line orbital elements,

1 03598U 68110B   18171.32996057  .00000029  00000-0  11403-4 0  9994
2 03598  34.9948  58.2567 0049509 333.2397  26.5745 14.54376146620091
Epoch (UTC): 20 June 2018 07:55:08
Eccentricity: 0.0049509
inclination: 34.9948°
perigee height: 676 km
apogee height: 746 km
right ascension of ascending node: 58.2567°
argument of perigee: 333.2397°
revolutions per day: 14.54376146
mean anomaly at epoch: 26.5745°
orbit number at epoch: 62009

The dashed part of the orbit path shows where the satellite is in the earth's shadow,  

DLR